Satellite-Ground Cal/Val Region Overpasses Predictions

Prediction of Satellite NPP Overpassing Cal/Val Region: PacNW

Region Location: (Latitude: 10.00, Longitude: 139.50) to (Latitude: 22.70, Longitude: 165.60).

Table of predicted overpasses for the next 14.0 days since TLE Epoch: 8/9/2019
Interval Starting Time Starting Location Ending Time Ending Location
1 08/10/2019 03:30:25 ( 10.01, 147.15) 08/10/2019 03:34:01 ( 22.69, 144.13)
2 08/10/2019 16:02:19 ( 22.65, 144.38) 08/10/2019 16:05:54 ( 10.03, 141.37)
3 08/11/2019 03:11:24 ( 10.02, 151.90) 08/11/2019 03:14:59 ( 22.64, 148.90)
4 08/11/2019 15:43:16 ( 22.69, 149.15) 08/11/2019 15:46:52 ( 10.01, 146.13)
5 08/12/2019 02:52:22 ( 10.04, 156.66) 08/12/2019 02:55:57 ( 22.66, 153.65)
6 08/12/2019 15:24:15 ( 22.67, 153.90) 08/12/2019 15:27:50 ( 10.05, 150.90)
7 08/13/2019 02:33:21 ( 10.05, 161.41) 08/13/2019 02:36:56 ( 22.68, 158.41)
8 08/13/2019 15:05:14 ( 22.66, 158.66) 08/13/2019 15:08:49 ( 10.04, 155.65)
9 08/14/2019 02:15:01 ( 12.54, 165.60) 08/14/2019 02:17:54 ( 22.69, 163.16)
10 08/14/2019 03:55:48 ( 10.02, 140.81) 08/14/2019 03:57:23 ( 15.60, 139.51)
11 08/14/2019 14:46:11 ( 22.70, 163.42) 08/14/2019 14:49:47 ( 10.02, 160.41)
12 08/15/2019 03:36:47 ( 10.03, 145.56) 08/15/2019 03:40:22 ( 22.66, 142.55)
13 08/15/2019 14:30:14 ( 11.88, 165.59) 08/15/2019 14:30:46 ( 10.00, 165.16)
14 08/15/2019 16:08:40 ( 22.68, 142.80) 08/15/2019 16:12:15 ( 10.06, 139.80)
15 08/16/2019 03:17:45 ( 10.05, 150.31) 08/16/2019 03:21:20 ( 22.67, 147.31)
16 08/16/2019 15:49:38 ( 22.66, 147.56) 08/16/2019 15:53:13 ( 10.04, 144.55)
17 08/17/2019 02:58:43 ( 10.01, 155.08) 08/17/2019 03:02:19 ( 22.69, 152.06)
18 08/17/2019 15:30:37 ( 22.64, 152.31) 08/17/2019 15:34:12 ( 10.02, 149.31)
19 08/18/2019 02:39:41 ( 10.03, 159.84) 08/18/2019 02:43:16 ( 22.65, 156.83)
20 08/18/2019 15:11:34 ( 22.68, 157.08) 08/18/2019 15:15:10 ( 10.01, 154.06)
21 08/19/2019 02:20:40 ( 10.05, 164.59) 08/19/2019 02:24:15 ( 22.67, 161.58)
22 08/19/2019 14:52:33 ( 22.67, 161.83) 08/19/2019 14:56:08 ( 10.05, 158.83)
23 08/20/2019 03:43:07 ( 10.01, 143.98) 08/20/2019 03:46:43 ( 22.69, 140.96)
24 08/20/2019 14:34:40 ( 18.60, 165.59) 08/20/2019 14:37:06 ( 10.03, 163.58)
25 08/20/2019 16:15:01 ( 22.64, 141.21) 08/20/2019 16:17:01 ( 15.60, 139.50)
26 08/21/2019 03:24:06 ( 10.03, 148.73) 08/21/2019 03:27:41 ( 22.65, 145.73)
27 08/21/2019 15:55:59 ( 22.68, 145.98) 08/21/2019 15:59:35 ( 10.01, 142.96)
28 08/22/2019 03:05:05 ( 10.05, 153.49) 08/22/2019 03:08:40 ( 22.67, 150.48)
29 08/22/2019 15:36:57 ( 22.67, 150.73) 08/22/2019 15:40:32 ( 10.05, 147.73)
30 08/23/2019 02:46:02 ( 10.01, 158.26) 08/23/2019 02:49:38 ( 22.69, 155.24)


NCC Satellite Cal/Val Overpasses Prediction Service
